Kirtland AFB, NM

6:34 AM MST on February 24, 2017 (GMT -0700)
Albuquerque International Sunport

Weather History for KABQ - March, 2012

Change the Weather History Date:

Monday, March 5, 2012

  Actual Average Record
Temperature  
Mean Temperature 48 °F 46 °F  
Max Temperature 66 °F 58 °F 78 °F (1910)
Min Temperature 30 °F 34 °F 9 °F (1966)
Degree Days  
Heating Degree Days 17 19  
Month to date heating degree days 113 98  
Since 1 July heating degree days 3286 3401  
Cooling Degree Days 0 0  
Month to date cooling degree days 0 0  
Year to date cooling degree days 0 0  
Moisture  
Dew Point 16 °F    
Average Humidity 32    
Maximum Humidity 51    
Minimum Humidity 13    
Precipitation  
Precipitation 0.00 in 0.02 in 0.25 in (1959)
Month to date precipitation T 0.09  
Year to date precipitation 0.66 0.95  
Snow  
Snow 0.00 in - - ()
Month to date snowfall T  
Since 1 July snowfall 6.7  
Snow Depth 0.00 in    
Sea Level Pressure  
Sea Level Pressure 30.11 in    
Wind  
Wind Speed 4 mph (ENE)    
Max Wind Speed 13 mph    
Max Gust Speed 16 mph    
Visibility 10 miles    
Events      
T = Trace of Precipitation, MM = Missing Value Source: NWS Daily Summary

Daily Weather History Graph

Daily Weather History Graph

Search for Another Location

Airport or City:

Trip Planner

Search our weather history database for the weather conditions in past years. The results will help you decide how hot, cold, wet, or windy it might be!

Date:

Astronomy

Mar. 05, 2012 Rise Set
Actual Time 6:29 AM MST 6:06 PM MST
Civil Twilight 6:04 AM MST 6:31 PM MST
Nautical Twilight 5:35 AM MST 7:00 PM MST
Astronomical Twilight 5:05 AM MST 7:30 PM MST
Moon 3:32 PM MST (3/5) 4:25 AM MST (3/5)
Length of Visible Light 12h 26m
Length of Day
11h 36m
Waxing Gibbous, 91% of the Moon is Illuminated
Mar 5
Waxing Gibbous
Mar 8
Full
Mar 14
Last Quarter
Mar 22
New
Mar 30
First Quarter

Hourly Weather History & Observations

Time (MST) Temp. Windchill Dew Point Humidity Pressure Visibility Wind Dir Wind Speed Gust Speed Precip Events Conditions
12:56 AM 43.0 °F 39.5 °F 19.0 °F 38% 30.17 in 10.0 mi North 5.8 mph - N/A   Clear
1:56 AM 37.9 °F 34.4 °F 19.0 °F 47% 30.20 in 10.0 mi WNW 4.6 mph - N/A   Clear
2:56 AM 33.1 °F 30.0 °F 17.1 °F 52% 30.21 in 10.0 mi SSE 3.5 mph - N/A   Clear
3:56 AM 34.0 °F 29.8 °F 17.1 °F 50% 30.20 in 10.0 mi ENE 4.6 mph - N/A   Clear
4:56 AM 36.0 °F 32.1 °F 18.0 °F 48% 30.18 in 10.0 mi NNW 4.6 mph - N/A   Clear
5:56 AM 36.0 °F 29.6 °F 18.0 °F 48% 30.20 in 10.0 mi North 8.1 mph - N/A   Clear
6:56 AM 33.1 °F 23.9 °F 17.1 °F 52% 30.23 in 10.0 mi North 12.7 mph - N/A   Partly Cloudy
7:56 AM 37.0 °F 30.4 °F 17.1 °F 44% 30.25 in 10.0 mi North 9.2 mph - N/A   Partly Cloudy
8:56 AM 41.0 °F 39.0 °F 18.0 °F 40% 30.25 in 10.0 mi WNW 3.5 mph - N/A   Partly Cloudy
9:56 AM 46.9 °F - 18.0 °F 32% 30.22 in 10.0 mi Calm Calm - N/A   Partly Cloudy
10:56 AM 52.0 °F - 19.0 °F 27% 30.19 in 10.0 mi Calm Calm - N/A   Partly Cloudy
11:56 AM 57.0 °F - 17.1 °F 21% 30.16 in 10.0 mi Calm Calm - N/A   Partly Cloudy
12:53 PM 59.0 °F - 16.0 °F 19% 30.10 in 10.0 mi SSW 4.6 mph - N/A   Partly Cloudy
1:52 PM 61.0 °F - 14.0 °F 16% 30.06 in 10.0 mi SSW 3.5 mph - N/A   Scattered Clouds
2:52 PM 64.9 °F - 14.0 °F 14% 30.04 in 10.0 mi WSW 3.5 mph - N/A   Scattered Clouds
3:52 PM 64.9 °F - 12.9 °F 13% 30.02 in 10.0 mi SE 4.6 mph - N/A   Mostly Cloudy
4:52 PM 64.9 °F - 12.0 °F 13% 29.99 in 10.0 mi Calm Calm - N/A   Mostly Cloudy
5:52 PM 63.0 °F - 12.0 °F 14% 30.00 in 10.0 mi South 4.6 mph - N/A   Mostly Cloudy
6:52 PM 59.0 °F - 12.0 °F 16% 30.03 in 10.0 mi ENE 3.5 mph - N/A   Mostly Cloudy
7:52 PM 55.0 °F - 14.0 °F 20% 30.02 in 10.0 mi East 5.8 mph - N/A   Mostly Cloudy
8:52 PM 48.9 °F - 14.0 °F 25% 30.03 in 10.0 mi Calm Calm - N/A   Mostly Cloudy
9:52 PM 52.0 °F - 16.0 °F 24% 29.99 in 10.0 mi ENE 3.5 mph - N/A   Mostly Cloudy
10:52 PM 48.9 °F - 14.0 °F 25% 29.98 in 10.0 mi SE 5.8 mph - N/A   Overcast
11:52 PM 46.9 °F - 12.9 °F 25% 29.96 in 10.0 mi SE 6.9 mph - N/A   Overcast